Time,TemperatureF,DewpointF,PressureIn,WindDirection,WindDirectionDegrees,WindSpeedMPH,WindSpeedGustMPH,Humidity,HourlyPrecipIn,Conditions,Clouds,dailyrainin,SoftwareType,DateUTC
2013-03-07 00:03:00,67.4,63.9,30.00,NE,49,1.6,2.7,89,0.00,,,0.00,WSDL version 420,2013-03-06 13:03:00,
2013-03-07 00:13:00,67.1,63.4,30.00,SE,132,0.0,2.5,88,-99.99,,,-99.99,WSDL version 420,2013-03-06 13:13:00,
2013-03-07 00:18:00,66.9,63.1,30.00,ESE,122,0.0,0.0,88,0.00,,,0.00,WSDL version 420,2013-03-06 13:18:00,
2013-03-07 00:28:00,66.3,62.8,30.00,ESE,121,0.3,2.0,89,0.00,,,0.00,WSDL version 420,2013-03-06 13:28:00,
2013-03-07 00:33:00,66.2,62.8,30.00,SSW,203,0.0,2.0,89,0.00,,,0.00,WSDL version 420,2013-03-06 13:33:00,
2013-03-07 00:38:00,66.0,63.0,30.00,SSE,164,0.0,1.3,90,0.00,,,0.00,WSDL version 420,2013-03-06 13:38:00,
2013-03-07 00:43:00,65.8,63.0,30.00,SE,132,0.3,1.3,91,0.00,,,0.00,WSDL version 420,2013-03-06 13:43:00,
2013-03-07 00:48:00,65.8,63.0,30.00,SSE,154,0.0,1.3,91,0.00,,,0.00,WSDL version 420,2013-03-06 13:48:00,
2013-03-07 00:53:00,65.6,62.9,30.00,SE,135,0.0,0.0,91,0.00,,,0.00,WSDL version 420,2013-03-06 13:53:00,
2013-03-07 00:58:00,65.3,62.7,30.00,ESE,113,0.0,0.0,91,0.00,,,0.00,WSDL version 420,2013-03-06 13:58:00,
2013-03-07 01:03:00,65.0,62.6,30.00,ESE,113,0.0,0.0,92,0.00,,,0.00,WSDL version 420,2013-03-06 14:03:00,
2013-03-07 01:08:00,64.8,62.5,30.00,ESE,103,0.0,0.0,92,0.00,,,0.00,WSDL version 420,2013-03-06 14:08:00,
2013-03-07 01:18:00,64.6,62.6,30.00,ESE,109,0.0,0.0,93,0.00,,,0.00,WSDL version 420,2013-03-06 14:18:00,
2013-03-07 01:23:00,64.6,62.7,29.97,SSW,199,0.0,0.0,93,0.00,,,0.00,WSDL version 420,2013-03-06 14:23:00,
2013-03-07 01:33:00,64.3,62.6,29.97,WSW,248,0.0,1.6,94,0.00,,,0.00,WSDL version 420,2013-03-06 14:33:00,
2013-03-07 01:38:00,64.0,62.5,29.97,WSW,248,0.0,0.0,96,0.00,,,0.00,WSDL version 420,2013-03-06 14:38:00,
2013-03-07 01:43:00,63.7,62.4,29.97,WSW,248,0.0,0.0,96,0.00,,,0.00,WSDL version 420,2013-03-06 14:43:00,
2013-03-07 01:48:00,63.6,62.3,29.97,WSW,248,0.0,0.0,96,0.00,,,0.00,WSDL version 420,2013-03-06 14:48:00,
2013-03-07 01:58:00,63.5,62.5,29.97,WSW,248,0.0,0.0,97,0.00,,,0.00,WSDL version 420,2013-03-06 14:58:00,
2013-03-07 02:03:00,63.4,62.5,29.97,WSW,248,0.0,0.0,97,0.00,,,0.00,WSDL version 420,2013-03-06 15:03:00,
2013-03-07 02:08:00,63.1,62.1,29.97,WSW,248,0.0,0.0,97,0.00,,,0.00,WSDL version 420,2013-03-06 15:08:00,
2013-03-07 02:13:00,63.0,61.4,29.97,WSW,248,0.0,0.0,91,0.00,,,0.00,WSDL version 420,2013-03-06 15:13:00,
2013-03-07 02:18:00,63.1,62.1,29.97,South,180,0.0,0.0,97,0.00,,,0.00,WSDL version 420,2013-03-06 15:18:00,
2013-03-07 02:23:00,63.4,62.5,29.97,South,177,0.0,1.3,98,0.00,,,0.00,WSDL version 420,2013-03-06 15:23:00,
2013-03-07 02:28:00,63.3,62.7,29.97,West,270,0.0,1.3,98,0.00,,,0.00,WSDL version 420,2013-03-06 15:28:00,
2013-03-07 02:33:00,63.1,62.4,29.97,West,270,0.0,0.0,98,0.00,,,0.00,WSDL version 420,2013-03-06 15:33:00,
2013-03-07 02:38:00,62.8,62.2,29.97,West,270,0.0,0.0,98,-99.99,,,-99.99,WSDL version 420,2013-03-06 15:38:00,
2013-03-07 02:43:00,62.6,62.0,29.97,West,270,0.0,0.0,98,0.00,,,0.00,WSDL version 420,2013-03-06 15:43:00,
2013-03-07 02:48:00,62.6,62.0,29.97,West,270,0.0,0.0,98,0.00,,,0.00,WSDL version 420,2013-03-06 15:48:00,
2013-03-07 02:53:00,62.5,62.1,29.97,West,270,0.0,0.0,99,0.00,,,0.00,WSDL version 420,2013-03-06 15:53:00,
2013-03-07 02:58:00,62.4,62.1,29.97,West,270,0.0,0.0,99,0.00,,,0.00,WSDL version 420,2013-03-06 15:58:00,
2013-03-07 03:03:00,62.3,62.0,29.97,West,270,0.0,0.0,99,0.00,,,0.00,WSDL version 420,2013-03-06 16:03:00,
2013-03-07 03:08:00,62.3,62.0,29.97,West,270,0.0,0.0,99,0.00,,,0.00,WSDL version 420,2013-03-06 16:08:00,
2013-03-07 03:13:00,62.2,62.2,29.97,West,270,0.0,0.0,100,0.00,,,0.00,WSDL version 420,2013-03-06 16:13:00,
2013-03-07 03:18:00,62.1,62.1,29.97,West,270,0.0,0.0,100,0.00,,,0.00,WSDL version 420,2013-03-06 16:18:00,
2013-03-07 03:23:00,62.0,62.0,29.97,West,270,0.0,0.0,100,0.00,,,0.00,WSDL version 420,2013-03-06 16:23:00,
2013-03-07 03:28:00,62.0,62.0,29.97,West,270,0.0,0.0,100,0.00,,,0.00,WSDL version 420,2013-03-06 16:28:00,
2013-03-07 03:33:00,61.9,61.9,29.97,West,270,0.0,0.0,100,0.00,,,0.00,WSDL version 420,2013-03-06 16:33:00,
2013-03-07 03:38:00,61.8,61.8,29.97,West,270,0.0,0.0,100,0.00,,,0.00,WSDL version 420,2013-03-06 16:38:00,
2013-03-07 03:43:00,61.8,61.8,29.97,West,270,0.0,0.0,100,0.00,,,0.00,WSDL version 420,2013-03-06 16:43:00,
2013-03-07 03:48:00,61.8,61.8,29.97,West,270,0.0,0.0,100,0.00,,,0.00,WSDL version 420,2013-03-06 16:48:00,
2013-03-07 03:53:00,61.6,61.6,29.97,West,270,0.0,0.0,100,0.00,,,0.00,WSDL version 420,2013-03-06 16:53:00,
2013-03-07 03:58:00,61.5,61.5,29.97,West,270,0.0,0.0,100,0.00,,,0.00,WSDL version 420,2013-03-06 16:58:00,
2013-03-07 04:03:00,61.4,61.4,29.97,West,270,0.0,0.0,100,0.00,,,0.00,WSDL version 420,2013-03-06 17:03:00,
2013-03-07 04:08:00,61.3,61.3,29.97,West,264,0.0,0.0,100,0.00,,,0.00,WSDL version 420,2013-03-06 17:08:00,
2013-03-07 04:13:00,61.3,61.3,29.97,West,270,0.0,0.0,100,-99.99,,,-99.99,WSDL version 420,2013-03-06 17:13:00,
2013-03-07 04:18:00,61.3,61.3,29.97,West,270,0.0,0.0,100,0.00,,,0.00,WSDL version 420,2013-03-06 17:18:00,
2013-03-07 04:23:00,61.1,61.1,29.97,West,270,0.0,0.0,100,0.00,,,0.00,WSDL version 420,2013-03-06 17:23:00,
2013-03-07 04:28:00,61.0,61.0,29.97,West,270,0.0,0.0,100,0.00,,,0.00,WSDL version 420,2013-03-06 17:28:00,
2013-03-07 04:33:00,61.2,61.2,29.97,West,270,0.0,0.0,100,0.00,,,0.00,WSDL version 420,2013-03-06 17:33:00,
2013-03-07 04:38:00,61.1,61.1,29.97,West,270,0.0,0.0,100,0.00,,,0.00,WSDL version 420,2013-03-06 17:38:00,
2013-03-07 04:43:00,61.0,61.0,29.97,West,270,0.0,0.0,100,0.00,,,0.00,WSDL version 420,2013-03-06 17:43:00,
2013-03-07 04:48:00,61.0,61.0,29.97,West,270,0.0,0.0,100,0.00,,,0.00,WSDL version 420,2013-03-06 17:48:00,
2013-03-07 04:53:00,61.0,61.0,30.00,West,270,0.0,0.0,100,0.00,,,0.00,WSDL version 420,2013-03-06 17:53:00,
2013-03-07 04:58:00,61.0,61.0,30.00,West,270,0.0,0.0,100,0.00,,,0.00,WSDL version 420,2013-03-06 17:58:00,
2013-03-07 05:03:00,60.9,60.9,30.00,West,270,0.0,0.0,100,-99.99,,,-99.99,WSDL version 420,2013-03-06 18:03:00,
2013-03-07 05:08:00,60.8,60.8,29.97,West,270,0.0,0.0,100,0.00,,,0.00,WSDL version 420,2013-03-06 18:08:00,
2013-03-07 05:13:00,60.6,60.6,29.97,West,270,0.0,0.0,100,0.00,,,0.00,WSDL version 420,2013-03-06 18:13:00,
2013-03-07 05:23:00,60.6,60.6,29.97,West,270,0.0,0.0,100,-99.99,,,-99.99,WSDL version 420,2013-03-06 18:23:00,
2013-03-07 05:28:00,60.7,60.7,29.97,West,270,0.0,0.0,100,0.00,,,0.00,WSDL version 420,2013-03-06 18:28:00,
2013-03-07 05:33:00,60.8,60.8,29.97,West,270,0.0,0.0,100,0.00,,,0.00,WSDL version 420,2013-03-06 18:33:00,
2013-03-07 05:38:00,60.7,60.7,29.97,West,270,0.0,0.0,100,0.00,,,0.00,WSDL version 420,2013-03-06 18:38:00,
2013-03-07 05:43:00,60.6,60.6,29.97,West,270,0.0,0.0,100,0.00,,,0.00,WSDL version 420,2013-03-06 18:43:00,
2013-03-07 05:48:00,60.5,60.5,29.97,West,270,0.0,0.0,100,0.00,,,0.00,WSDL version 420,2013-03-06 18:48:00,
2013-03-07 05:53:00,60.6,60.6,29.97,West,270,0.0,0.0,100,0.00,,,0.00,WSDL version 420,2013-03-06 18:53:00,
2013-03-07 05:58:00,60.2,60.2,29.97,West,270,0.0,0.0,100,0.00,,,0.00,WSDL version 420,2013-03-06 18:58:00,
2013-03-07 06:03:00,60.1,60.1,29.97,West,270,0.0,0.0,100,0.00,,,0.00,WSDL version 420,2013-03-06 19:03:00,
2013-03-07 06:08:00,60.2,60.2,29.97,West,270,0.0,0.0,100,-99.99,,,-99.99,WSDL version 420,2013-03-06 19:08:00,
2013-03-07 06:13:00,60.2,60.2,29.97,West,270,0.0,0.0,100,0.00,,,0.00,WSDL version 420,2013-03-06 19:13:00,
2013-03-07 06:18:00,60.1,60.1,29.97,West,270,0.0,0.0,100,0.00,,,0.00,WSDL version 420,2013-03-06 19:18:00,
2013-03-07 06:23:00,60.1,60.1,29.97,West,270,0.0,0.0,100,0.00,,,0.00,WSDL version 420,2013-03-06 19:23:00,
2013-03-07 06:28:00,60.2,60.2,29.97,West,270,0.0,0.0,100,0.00,,,0.00,WSDL version 420,2013-03-06 19:28:00,
2013-03-07 06:33:00,60.1,60.1,29.97,West,270,0.0,0.0,100,0.00,,,0.00,WSDL version 420,2013-03-06 19:33:00,
2013-03-07 06:38:00,60.1,60.1,29.97,West,270,0.0,0.0,100,0.00,,,0.00,WSDL version 420,2013-03-06 19:38:00,
2013-03-07 06:43:00,60.2,60.2,29.97,West,270,0.0,0.0,100,0.00,,,0.00,WSDL version 420,2013-03-06 19:43:00,
2013-03-07 06:48:00,60.1,60.1,29.97,West,270,0.0,0.0,100,0.00,,,0.00,WSDL version 420,2013-03-06 19:48:00,
2013-03-07 06:53:00,60.3,60.3,29.97,West,270,0.0,0.0,100,0.00,,,0.00,WSDL version 420,2013-03-06 19:53:00,
2013-03-07 06:58:00,60.4,60.4,29.97,West,270,0.0,0.0,100,0.00,,,0.00,WSDL version 420,2013-03-06 19:58:00,
2013-03-07 07:03:00,60.3,60.3,29.97,West,270,0.0,0.0,100,-99.99,,,-99.99,WSDL version 420,2013-03-06 20:03:00,
2013-03-07 07:08:00,60.4,60.4,30.00,West,270,0.0,0.0,100,0.00,,,0.00,WSDL version 420,2013-03-06 20:08:00,
2013-03-07 07:13:00,60.4,60.4,30.00,West,270,0.0,0.0,100,0.00,,,0.00,WSDL version 420,2013-03-06 20:13:00,
2013-03-07 07:18:00,60.6,60.6,30.00,West,270,0.0,0.0,100,0.00,,,0.00,WSDL version 420,2013-03-06 20:18:00,
2013-03-07 07:23:00,60.8,60.8,30.00,West,270,0.0,0.0,100,0.00,,,0.00,WSDL version 420,2013-03-06 20:23:00,
2013-03-07 07:28:00,61.0,61.0,30.00,West,270,0.0,0.0,100,0.00,,,0.00,WSDL version 420,2013-03-06 20:28:00,
2013-03-07 07:33:00,61.3,61.3,30.00,West,270,0.0,0.0,100,0.00,,,0.00,WSDL version 420,2013-03-06 20:33:00,
2013-03-07 07:38:00,61.6,61.6,30.00,West,270,0.0,0.0,100,0.00,,,0.00,WSDL version 420,2013-03-06 20:38:00,
2013-03-07 07:43:00,63.4,63.4,30.00,West,270,0.0,0.0,100,0.00,,,0.00,WSDL version 420,2013-03-06 20:43:00,
2013-03-07 07:48:00,66.3,66.3,30.00,West,270,0.0,0.0,100,-99.99,,,-99.99,WSDL version 420,2013-03-06 20:48:00,
2013-03-07 07:53:00,68.2,68.2,30.03,West,270,0.0,0.0,100,0.00,,,0.00,WSDL version 420,2013-03-06 20:53:00,
2013-03-07 07:58:00,69.2,69.2,30.03,West,270,0.0,0.0,100,0.00,,,0.00,WSDL version 420,2013-03-06 20:58:00,
2013-03-07 08:03:00,69.6,69.6,30.03,SE,135,0.0,0.0,100,0.00,,,0.00,WSDL version 420,2013-03-06 21:03:00,
2013-03-07 08:08:00,69.7,69.7,30.03,ESE,116,0.0,0.0,100,0.00,,,0.00,WSDL version 420,2013-03-06 21:08:00,
2013-03-07 08:13:00,69.2,69.2,30.03,East,96,0.0,0.0,100,0.00,,,0.00,WSDL version 420,2013-03-06 21:13:00,
2013-03-07 08:18:00,69.1,69.1,30.03,SSW,203,0.4,2.0,100,0.00,,,0.00,WSDL version 420,2013-03-06 21:18:00,
2013-03-07 08:23:00,69.8,69.8,30.03,East,87,0.0,2.0,100,0.00,,,0.00,WSDL version 420,2013-03-06 21:23:00,
2013-03-07 08:28:00,70.8,70.8,30.03,ESE,113,1.1,2.2,100,0.00,,,0.00,WSDL version 420,2013-03-06 21:28:00,
2013-03-07 08:33:00,71.2,71.0,30.03,ENE,58,2.2,3.8,98,0.00,,,0.00,WSDL version 420,2013-03-06 21:33:00,
2013-03-07 08:38:00,71.8,70.7,30.03,ENE,58,1.9,3.8,96,0.00,,,0.00,WSDL version 420,2013-03-06 21:38:00,
2013-03-07 08:43:00,72.6,70.1,30.03,North,6,2.1,4.3,89,0.00,,,0.00,WSDL version 420,2013-03-06 21:43:00,
2013-03-07 08:48:00,73.8,69.9,30.03,NNW,329,1.9,4.3,86,0.00,,,0.00,WSDL version 420,2013-03-06 21:48:00,
2013-03-07 08:53:00,74.5,68.4,30.03,North,11,2.1,3.8,80,0.00,,,0.00,WSDL version 420,2013-03-06 21:53:00,
2013-03-07 08:58:00,74.8,66.9,30.03,NW,315,1.4,3.8,76,0.00,,,0.00,WSDL version 420,2013-03-06 21:58:00,
2013-03-07 09:03:00,75.3,64.8,30.03,NNE,23,2.9,4.7,69,0.00,,,0.00,WSDL version 420,2013-03-06 22:03:00,
2013-03-07 09:08:00,75.8,64.9,30.03,North,350,2.6,4.7,69,0.00,,,0.00,WSDL version 420,2013-03-06 22:08:00,
2013-03-07 09:13:00,76.6,64.7,30.03,ENE,64,2.4,3.8,66,0.00,,,0.00,WSDL version 420,2013-03-06 22:13:00,
2013-03-07 09:18:00,76.8,64.2,30.03,SE,140,2.0,5.8,64,0.00,,,0.00,WSDL version 420,2013-03-06 22:18:00,
2013-03-07 09:23:00,77.5,63.7,30.00,East,95,1.6,5.8,62,0.00,,,0.00,WSDL version 420,2013-03-06 22:23:00,
2013-03-07 09:28:00,77.9,62.4,30.00,NNW,347,2.6,6.3,59,0.00,,,0.00,WSDL version 420,2013-03-06 22:28:00,
2013-03-07 09:33:00,79.0,63.6,30.00,North,354,2.4,6.3,60,0.00,,,0.00,WSDL version 420,2013-03-06 22:33:00,
2013-03-07 09:38:00,79.4,61.7,30.03,WNW,293,3.5,5.4,55,0.00,,,0.00,WSDL version 420,2013-03-06 22:38:00,
2013-03-07 09:43:00,79.6,60.8,30.03,NNW,344,2.8,5.8,53,0.00,,,0.00,WSDL version 420,2013-03-06 22:43:00,
2013-03-07 09:48:00,79.7,60.6,30.03,West,264,2.9,5.8,52,0.00,,,0.00,WSDL version 420,2013-03-06 22:48:00,
2013-03-07 09:53:00,80.7,60.9,30.00,NE,53,3.0,4.9,49,0.00,,,0.00,WSDL version 420,2013-03-06 22:53:00,
2013-03-07 09:58:00,81.0,60.3,30.00,NNW,334,2.9,4.9,49,0.00,,,0.00,WSDL version 420,2013-03-06 22:58:00,
2013-03-07 10:03:00,-999.0,-99.9,30.00,WNW,302,3.7,7.2,-999,0.00,,,0.00,WSDL version 420,2013-03-06 23:03:00,
2013-03-07 10:08:00,81.6,60.0,30.03,WNW,296,3.5,7.2,48,0.00,,,0.00,WSDL version 420,2013-03-06 23:08:00,
2013-03-07 10:13:00,81.4,58.6,30.03,NE,39,3.0,7.6,47,0.00,,,0.00,WSDL version 420,2013-03-06 23:13:00,
2013-03-07 10:18:00,81.7,59.4,30.03,East,90,3.7,7.6,47,0.00,,,0.00,WSDL version 420,2013-03-06 23:18:00,
2013-03-07 10:23:00,81.6,59.5,30.03,NNE,13,3.7,7.4,46,0.00,,,0.00,WSDL version 420,2013-03-06 23:23:00,
2013-03-07 10:28:00,82.0,59.0,30.03,NW,305,3.1,9.6,46,0.00,,,0.00,WSDL version 420,2013-03-06 23:28:00,
2013-03-07 10:33:00,82.7,59.2,30.03,NNE,26,3.2,9.6,45,0.00,,,0.00,WSDL version 420,2013-03-06 23:33:00,
2013-03-07 10:38:00,82.6,57.2,30.03,NW,318,4.0,6.5,42,0.00,,,0.00,WSDL version 420,2013-03-06 23:38:00,
2013-03-07 10:43:00,82.8,57.4,30.03,North,10,3.7,7.8,42,0.00,,,0.00,WSDL version 420,2013-03-06 23:43:00,
2013-03-07 10:48:00,83.5,58.0,30.03,NNW,341,3.8,8.1,41,-99.99,,,-99.99,WSDL version 420,2013-03-06 23:48:00,
2013-03-07 10:53:00,83.8,58.0,30.03,NNE,25,3.1,8.1,42,-99.99,,,-99.99,WSDL version 420,2013-03-06 23:53:00,
2013-03-07 10:58:00,84.3,57.9,30.03,North,360,4.1,10.3,41,0.00,,,0.00,WSDL version 420,2013-03-06 23:58:00,
2013-03-07 11:03:00,84.8,57.8,30.03,NE,41,3.1,10.3,40,0.00,,,0.00,WSDL version 420,2013-03-07 00:03:00,
2013-03-07 11:08:00,85.3,58.4,30.03,NE,35,4.0,5.8,40,0.00,,,0.00,WSDL version 420,2013-03-07 00:08:00,
2013-03-07 11:13:00,85.0,57.8,30.03,NNW,347,3.5,8.5,40,0.00,,,0.00,WSDL version 420,2013-03-07 00:13:00,
2013-03-07 11:18:00,85.5,58.3,30.03,North,354,3.5,8.5,40,0.00,,,0.00,WSDL version 420,2013-03-07 00:18:00,
2013-03-07 11:23:00,84.0,56.8,30.03,East,83,5.7,10.5,40,0.00,,,0.00,WSDL version 420,2013-03-07 00:23:00,
2013-03-07 11:28:00,84.6,57.6,30.03,NNE,31,4.3,10.5,40,0.00,,,0.00,WSDL version 420,2013-03-07 00:28:00,
2013-03-07 11:33:00,85.4,58.1,30.03,NNW,338,3.1,9.6,40,0.00,,,0.00,WSDL version 420,2013-03-07 00:33:00,
2013-03-07 11:38:00,85.7,57.9,30.03,NNE,23,3.9,8.1,39,0.00,,,0.00,WSDL version 420,2013-03-07 00:38:00,
2013-03-07 11:43:00,85.6,56.7,30.03,ENE,65,4.8,11.0,38,0.00,,,0.00,WSDL version 420,2013-03-07 00:43:00,
2013-03-07 11:48:00,84.9,56.3,30.03,NE,50,3.6,11.0,38,0.00,,,0.00,WSDL version 420,2013-03-07 00:48:00,
2013-03-07 11:53:00,86.1,57.4,30.03,NNE,13,6.4,9.6,39,0.00,,,0.00,WSDL version 420,2013-03-07 00:53:00,
2013-03-07 11:58:00,84.8,59.3,30.03,ENE,61,4.6,9.6,44,0.00,,,0.00,WSDL version 420,2013-03-07 00:58:00,
2013-03-07 12:03:00,83.4,60.8,30.03,NE,51,3.5,9.6,47,0.00,,,0.00,WSDL version 420,2013-03-07 01:03:00,
2013-03-07 12:08:00,82.3,60.8,30.03,NNE,14,1.5,7.4,48,0.00,,,0.00,WSDL version 420,2013-03-07 01:08:00,
2013-03-07 12:13:00,85.2,62.9,30.03,SE,129,1.5,4.7,47,0.00,,,0.00,WSDL version 420,2013-03-07 01:13:00,
2013-03-07 12:18:00,85.3,60.6,30.03,ENE,59,2.7,5.6,42,0.00,,,0.00,WSDL version 420,2013-03-07 01:18:00,
2013-03-07 12:23:00,83.1,57.5,30.03,East,96,5.3,9.6,43,0.00,,,0.00,WSDL version 420,2013-03-07 01:23:00,
2013-03-07 12:28:00,82.0,56.9,30.03,NE,48,3.5,9.6,43,0.00,,,0.00,WSDL version 420,2013-03-07 01:28:00,
2013-03-07 12:33:00,82.8,59.9,30.03,East,79,4.6,6.5,47,0.00,,,0.00,WSDL version 420,2013-03-07 01:33:00,
2013-03-07 12:38:00,81.8,59.6,30.03,NNE,32,4.8,9.6,47,0.00,,,0.00,WSDL version 420,2013-03-07 01:38:00,
2013-03-07 12:43:00,83.4,62.1,30.03,NNE,13,2.8,9.6,48,0.00,,,0.00,WSDL version 420,2013-03-07 01:43:00,
2013-03-07 12:48:00,84.4,60.1,30.03,NE,45,5.3,9.8,44,0.00,,,0.00,WSDL version 420,2013-03-07 01:48:00,
2013-03-07 12:53:00,86.2,60.0,30.00,North,360,3.4,9.8,41,0.00,,,0.00,WSDL version 420,2013-03-07 01:53:00,
2013-03-07 12:58:00,85.3,58.3,30.00,East,96,6.0,10.3,40,0.00,,,0.00,WSDL version 420,2013-03-07 01:58:00,
2013-03-07 13:03:00,85.6,58.8,30.00,ENE,71,3.5,10.3,41,-99.99,,,-99.99,WSDL version 420,2013-03-07 02:03:00,
2013-03-07 13:08:00,86.2,60.0,30.00,NE,53,4.0,8.5,41,0.00,,,0.00,WSDL version 420,2013-03-07 02:08:00,
2013-03-07 13:13:00,86.0,58.6,30.00,SE,124,4.6,9.4,40,0.00,,,0.00,WSDL version 420,2013-03-07 02:13:00,
2013-03-07 13:18:00,86.4,60.2,30.00,NNE,30,4.0,9.4,42,0.00,,,0.00,WSDL version 420,2013-03-07 02:18:00,
2013-03-07 13:23:00,-999.0,-99.9,30.00,NE,45,4.8,9.8,-999,-99.99,,,-99.99,WSDL version 420,2013-03-07 02:23:00,
2013-03-07 13:28:00,87.4,60.4,30.00,NE,36,2.8,9.8,40,0.00,,,0.00,WSDL version 420,2013-03-07 02:28:00,
2013-03-07 13:33:00,87.7,60.9,30.00,East,84,3.7,12.3,40,0.00,,,0.00,WSDL version 420,2013-03-07 02:33:00,
2013-03-07 13:38:00,86.8,60.3,29.97,ENE,58,4.1,12.3,41,0.00,,,0.00,WSDL version 420,2013-03-07 02:38:00,
2013-03-07 13:43:00,86.9,60.4,29.97,East,94,5.1,9.6,40,0.00,,,0.00,WSDL version 420,2013-03-07 02:43:00,
2013-03-07 13:48:00,87.6,60.9,29.97,SSE,166,3.2,9.6,41,0.00,,,0.00,WSDL version 420,2013-03-07 02:48:00,
2013-03-07 13:53:00,87.3,60.9,29.97,East,98,4.0,13.0,42,0.00,,,0.00,WSDL version 420,2013-03-07 02:53:00,
2013-03-07 14:03:00,87.0,60.4,29.97,ENE,70,5.6,12.1,41,0.00,,,0.00,WSDL version 420,2013-03-07 03:03:00,
2013-03-07 14:08:00,86.5,60.9,29.97,ENE,71,4.9,12.1,42,0.00,,,0.00,WSDL version 420,2013-03-07 03:08:00,
2013-03-07 14:13:00,85.2,60.2,29.97,ENE,64,6.2,10.3,44,0.00,,,0.00,WSDL version 420,2013-03-07 03:13:00,
2013-03-07 14:18:00,86.4,61.9,29.97,ENE,68,5.5,9.8,43,0.00,,,0.00,WSDL version 420,2013-03-07 03:18:00,
2013-03-07 14:23:00,85.6,60.6,29.97,East,90,5.5,12.1,44,0.00,,,0.00,WSDL version 420,2013-03-07 03:23:00,
2013-03-07 14:28:00,86.6,61.8,29.97,East,87,4.3,12.1,43,0.00,,,0.00,WSDL version 420,2013-03-07 03:28:00,
2013-03-07 14:33:00,87.3,62.3,29.97,NNE,23,5.3,11.9,43,0.00,,,0.00,WSDL version 420,2013-03-07 03:33:00,
2013-03-07 14:38:00,86.2,61.1,29.97,East,86,7.3,16.1,43,0.00,,,0.00,WSDL version 420,2013-03-07 03:38:00,
2013-03-07 14:43:00,85.5,60.5,29.97,ENE,68,5.6,16.1,43,0.00,,,0.00,WSDL version 420,2013-03-07 03:43:00,
2013-03-07 14:48:00,85.6,61.1,29.97,ENE,62,3.7,12.3,44,0.00,,,0.00,WSDL version 420,2013-03-07 03:48:00,
2013-03-07 14:53:00,85.3,59.8,29.97,ENE,68,4.0,9.6,43,-99.99,,,-99.99,WSDL version 420,2013-03-07 03:53:00,
2013-03-07 14:58:00,86.0,60.9,29.97,NE,39,5.6,9.4,43,0.00,,,0.00,WSDL version 420,2013-03-07 03:58:00,
2013-03-07 15:03:00,86.2,61.1,29.97,North,10,3.5,9.4,43,0.00,,,0.00,WSDL version 420,2013-03-07 04:03:00,
2013-03-07 15:08:00,86.8,61.0,29.97,NE,55,5.1,9.8,42,0.00,,,0.00,WSDL version 420,2013-03-07 04:08:00,
2013-03-07 15:13:00,85.0,58.9,29.97,NE,53,5.5,13.0,41,0.00,,,0.00,WSDL version 420,2013-03-07 04:13:00,
2013-03-07 15:23:00,84.3,58.8,29.97,East,100,6.0,12.1,42,0.00,,,0.00,WSDL version 420,2013-03-07 04:23:00,
2013-03-07 15:28:00,85.8,59.8,29.97,SSE,161,4.0,12.1,41,0.00,,,0.00,WSDL version 420,2013-03-07 04:28:00,
2013-03-07 15:33:00,85.1,59.1,29.97,East,93,7.7,12.5,42,0.00,,,0.00,WSDL version 420,2013-03-07 04:33:00,
2013-03-07 15:38:00,85.6,60.3,29.97,ENE,75,3.1,12.5,42,0.00,,,0.00,WSDL version 420,2013-03-07 04:38:00,
2013-03-07 15:43:00,86.4,59.3,29.97,East,90,6.5,8.5,39,0.00,,,0.00,WSDL version 420,2013-03-07 04:43:00,
2013-03-07 15:48:00,85.2,58.9,29.97,ENE,75,7.3,15.4,41,-99.99,,,-99.99,WSDL version 420,2013-03-07 04:48:00,
2013-03-07 15:53:00,85.5,59.2,29.97,East,79,3.4,15.4,41,0.00,,,0.00,WSDL version 420,2013-03-07 04:53:00,
2013-03-07 15:58:00,86.0,59.3,29.97,ENE,73,4.4,10.7,40,0.00,,,0.00,WSDL version 420,2013-03-07 04:58:00,
2013-03-07 16:03:00,86.0,58.8,29.97,East,90,5.1,12.3,39,0.00,,,0.00,WSDL version 420,2013-03-07 05:03:00,
2013-03-07 16:08:00,85.9,59.3,29.97,East,101,3.6,12.3,41,0.00,,,0.00,WSDL version 420,2013-03-07 05:08:00,
2013-03-07 16:13:00,85.9,58.4,29.97,ENE,71,7.1,10.5,40,0.00,,,0.00,WSDL version 420,2013-03-07 05:13:00,
2013-03-07 16:18:00,85.6,58.6,29.97,East,87,6.1,10.5,40,0.00,,,0.00,WSDL version 420,2013-03-07 05:18:00,
2013-03-07 16:23:00,85.9,59.3,30.00,NE,55,5.7,10.5,41,0.00,,,0.00,WSDL version 420,2013-03-07 05:23:00,
2013-03-07 16:28:00,85.6,59.1,30.00,ENE,73,4.1,10.5,40,0.00,,,0.00,WSDL version 420,2013-03-07 05:28:00,
2013-03-07 16:33:00,85.6,59.0,30.00,East,86,5.6,10.5,41,0.00,,,0.00,WSDL version 420,2013-03-07 05:33:00,
2013-03-07 16:38:00,86.4,59.4,29.97,ENE,60,4.1,10.5,40,0.00,,,0.00,WSDL version 420,2013-03-07 05:38:00,
2013-03-07 16:48:00,84.7,58.3,29.97,NE,56,5.7,11.0,40,0.00,,,0.00,WSDL version 420,2013-03-07 05:48:00,
2013-03-07 16:53:00,84.1,57.7,29.97,ENE,58,7.2,12.1,41,0.00,,,0.00,WSDL version 420,2013-03-07 05:53:00,
2013-03-07 16:58:00,84.4,57.9,29.97,East,80,4.6,12.1,41,0.00,,,0.00,WSDL version 420,2013-03-07 05:58:00,
2013-03-07 17:03:00,84.6,57.6,29.97,ENE,71,3.5,9.8,40,0.00,,,0.00,WSDL version 420,2013-03-07 06:03:00,
2013-03-07 17:08:00,85.1,58.1,29.97,NE,51,3.9,8.1,40,0.00,,,0.00,WSDL version 420,2013-03-07 06:08:00,
2013-03-07 17:13:00,84.5,56.9,29.97,ENE,77,5.8,8.7,39,0.00,,,0.00,WSDL version 420,2013-03-07 06:13:00,
2013-03-07 17:18:00,83.8,56.3,29.97,NE,53,5.7,10.1,40,0.00,,,0.00,WSDL version 420,2013-03-07 06:18:00,
2013-03-07 17:23:00,83.6,56.7,29.97,ENE,60,4.8,10.1,40,0.00,,,0.00,WSDL version 420,2013-03-07 06:23:00,
2013-03-07 17:28:00,83.5,56.6,29.97,ESE,121,4.6,12.3,40,0.00,,,0.00,WSDL version 420,2013-03-07 06:28:00,
2013-03-07 17:33:00,83.8,57.0,29.97,NE,53,4.4,12.3,40,0.00,,,0.00,WSDL version 420,2013-03-07 06:33:00,
2013-03-07 17:38:00,83.9,57.1,29.94,NNE,29,3.6,8.5,40,0.00,,,0.00,WSDL version 420,2013-03-07 06:38:00,
2013-03-07 17:43:00,83.8,56.9,29.94,East,94,5.4,8.7,40,0.00,,,0.00,WSDL version 420,2013-03-07 06:43:00,
2013-03-07 17:48:00,83.7,57.0,29.94,NNE,17,5.3,9.8,41,0.00,,,0.00,WSDL version 420,2013-03-07 06:48:00,
2013-03-07 17:53:00,82.6,56.7,29.97,ENE,68,6.3,12.5,42,0.00,,,0.00,WSDL version 420,2013-03-07 06:53:00,
2013-03-07 17:58:00,81.5,57.3,29.97,East,96,5.7,12.5,45,0.00,,,0.00,WSDL version 420,2013-03-07 06:58:00,
2013-03-07 18:03:00,81.4,58.0,29.97,NE,49,3.5,10.7,45,0.00,,,0.00,WSDL version 420,2013-03-07 07:03:00,
2013-03-07 18:08:00,81.5,57.2,29.97,NNE,32,5.3,8.1,44,0.00,,,0.00,WSDL version 420,2013-03-07 07:08:00,
2013-03-07 18:13:00,81.2,57.3,29.97,North,4,3.9,8.1,44,0.00,,,0.00,WSDL version 420,2013-03-07 07:13:00,
2013-03-07 18:18:00,81.2,57.4,29.97,ENE,71,3.4,5.4,45,0.00,,,0.00,WSDL version 420,2013-03-07 07:18:00,
2013-03-07 18:23:00,81.1,57.5,29.97,East,87,2.5,5.8,45,0.00,,,0.00,WSDL version 420,2013-03-07 07:23:00,
2013-03-07 18:28:00,80.6,57.5,29.97,NE,42,3.6,10.1,45,0.00,,,0.00,WSDL version 420,2013-03-07 07:28:00,
2013-03-07 18:33:00,79.7,57.0,29.97,East,86,4.5,10.1,45,0.00,,,0.00,WSDL version 420,2013-03-07 07:33:00,
2013-03-07 18:38:00,79.1,56.6,30.00,ESE,103,3.8,11.0,46,0.00,,,0.00,WSDL version 420,2013-03-07 07:38:00,
2013-03-07 18:43:00,78.1,56.6,30.00,ESE,106,3.3,11.0,48,0.00,,,0.00,WSDL version 420,2013-03-07 07:43:00,
2013-03-07 18:48:00,-999.0,-99.9,30.00,East,96,4.9,10.5,-999,0.00,,,0.00,WSDL version 420,2013-03-07 07:48:00,
2013-03-07 18:53:00,75.8,58.0,30.00,SE,135,4.3,10.5,55,0.00,,,0.00,WSDL version 420,2013-03-07 07:53:00,
2013-03-07 18:58:00,74.9,58.1,30.00,NNE,26,5.8,12.3,56,0.00,,,0.00,WSDL version 420,2013-03-07 07:58:00,
2013-03-07 19:03:00,74.6,58.3,30.00,ENE,74,4.7,12.3,57,0.00,,,0.00,WSDL version 420,2013-03-07 08:03:00,
2013-03-07 19:08:00,74.2,57.8,30.00,ENE,59,5.9,10.3,56,0.00,,,0.00,WSDL version 420,2013-03-07 08:08:00,
2013-03-07 19:13:00,74.1,57.9,30.00,ESE,105,5.0,9.8,57,0.00,,,0.00,WSDL version 420,2013-03-07 08:13:00,
2013-03-07 19:18:00,73.6,57.7,30.00,NE,41,4.9,9.8,58,0.00,,,0.00,WSDL version 420,2013-03-07 08:18:00,
2013-03-07 19:23:00,73.4,57.9,30.00,East,98,3.3,9.8,59,0.00,,,0.00,WSDL version 420,2013-03-07 08:23:00,
2013-03-07 19:28:00,73.2,58.5,30.00,NE,41,3.7,6.0,60,0.00,,,0.00,WSDL version 420,2013-03-07 08:28:00,
2013-03-07 19:33:00,72.9,58.6,30.00,SE,132,4.1,7.4,61,0.00,,,0.00,WSDL version 420,2013-03-07 08:33:00,
2013-03-07 19:38:00,72.7,58.5,30.03,ENE,74,4.5,8.1,61,0.00,,,0.00,WSDL version 420,2013-03-07 08:38:00,
2013-03-07 19:48:00,72.5,59.0,30.03,ENE,77,3.5,8.5,63,0.00,,,0.00,WSDL version 420,2013-03-07 08:48:00,
2013-03-07 19:53:00,72.4,59.2,30.03,ENE,58,3.7,9.8,64,0.00,,,0.00,WSDL version 420,2013-03-07 08:53:00,
2013-03-07 19:58:00,72.3,59.2,30.03,NNW,330,3.6,9.8,64,0.00,,,0.00,WSDL version 420,2013-03-07 08:58:00,
2013-03-07 20:08:00,72.1,59.7,30.03,ENE,58,3.2,7.6,65,0.00,,,0.00,WSDL version 420,2013-03-07 09:08:00,
2013-03-07 20:13:00,72.0,59.5,30.03,ESE,107,3.1,7.8,65,0.00,,,0.00,WSDL version 420,2013-03-07 09:13:00,
2013-03-07 20:18:00,72.0,59.6,30.03,East,90,4.2,7.8,65,0.00,,,0.00,WSDL version 420,2013-03-07 09:18:00,
2013-03-07 20:23:00,71.8,59.4,30.03,ENE,62,2.3,7.4,65,0.00,,,0.00,WSDL version 420,2013-03-07 09:23:00,
2013-03-07 20:28:00,71.7,59.6,30.03,East,86,4.7,7.4,66,0.00,,,0.00,WSDL version 420,2013-03-07 09:28:00,
2013-03-07 20:33:00,71.6,59.8,30.03,ENE,77,4.8,7.6,67,0.00,,,0.00,WSDL version 420,2013-03-07 09:33:00,
2013-03-07 20:38:00,71.4,59.5,30.00,ENE,68,1.3,7.6,66,0.00,,,0.00,WSDL version 420,2013-03-07 09:38:00,
2013-03-07 20:43:00,71.4,60.3,30.00,ENE,59,3.0,5.4,68,0.00,,,0.00,WSDL version 420,2013-03-07 09:43:00,
2013-03-07 20:48:00,71.2,60.0,30.00,North,3,2.1,4.3,68,0.00,,,0.00,WSDL version 420,2013-03-07 09:48:00,
2013-03-07 20:53:00,71.1,60.1,30.03,SE,140,1.8,4.7,69,0.00,,,0.00,WSDL version 420,2013-03-07 09:53:00,
2013-03-07 20:58:00,70.9,60.1,30.03,North,353,1.5,5.4,69,0.00,,,0.00,WSDL version 420,2013-03-07 09:58:00,
2013-03-07 21:03:00,70.8,60.4,30.03,North,6,1.7,5.4,70,0.00,,,0.00,WSDL version 420,2013-03-07 10:03:00,
2013-03-07 21:08:00,70.7,60.7,30.03,NNE,16,2.5,4.3,71,0.00,,,0.00,WSDL version 420,2013-03-07 10:08:00,
2013-03-07 21:18:00,70.7,61.4,30.03,NE,39,2.7,7.2,73,0.00,,,0.00,WSDL version 420,2013-03-07 10:18:00,
2013-03-07 21:23:00,70.5,61.2,30.03,East,79,3.0,7.2,73,0.00,,,0.00,WSDL version 420,2013-03-07 10:23:00,
2013-03-07 21:33:00,70.1,60.7,30.03,NNW,328,1.3,3.6,72,0.00,,,0.00,WSDL version 420,2013-03-07 10:33:00,
2013-03-07 21:38:00,70.0,60.7,30.06,NNW,338,0.2,3.6,72,0.00,,,0.00,WSDL version 420,2013-03-07 10:38:00,
2013-03-07 21:43:00,69.7,60.4,30.06,ESE,118,1.3,3.4,73,0.00,,,0.00,WSDL version 420,2013-03-07 10:43:00,
2013-03-07 21:48:00,69.6,61.4,30.06,SW,225,0.6,4.9,75,0.00,,,0.00,WSDL version 420,2013-03-07 10:48:00,
2013-03-07 21:53:00,69.4,61.2,30.03,NE,41,0.7,4.9,75,0.00,,,0.00,WSDL version 420,2013-03-07 10:53:00,
2013-03-07 21:58:00,69.3,61.0,30.03,SE,143,0.2,2.9,75,0.00,,,0.00,WSDL version 420,2013-03-07 10:58:00,
2013-03-07 22:03:00,69.1,61.2,30.03,SSE,151,0.5,2.5,76,0.00,,,0.00,WSDL version 420,2013-03-07 11:03:00,
2013-03-07 22:13:00,68.9,62.1,30.06,SE,125,1.5,3.4,79,0.00,,,0.00,WSDL version 420,2013-03-07 11:13:00,
2013-03-07 22:18:00,68.9,62.5,30.06,NE,48,1.7,4.3,80,0.00,,,0.00,WSDL version 420,2013-03-07 11:18:00,
2013-03-07 22:23:00,68.7,61.9,30.06,ENE,64,0.9,4.3,79,0.00,,,0.00,WSDL version 420,2013-03-07 11:23:00,
2013-03-07 22:28:00,68.6,62.0,30.06,SE,127,0.5,2.7,80,0.00,,,0.00,WSDL version 420,2013-03-07 11:28:00,
2013-03-07 22:33:00,68.2,61.5,30.06,ESE,118,0.0,2.5,79,0.00,,,0.00,WSDL version 420,2013-03-07 11:33:00,
2013-03-07 22:38:00,68.2,61.7,30.06,SE,125,1.0,2.0,80,0.00,,,0.00,WSDL version 420,2013-03-07 11:38:00,
2013-03-07 22:43:00,67.9,61.6,30.06,ESE,110,0.0,2.0,80,0.00,,,0.00,WSDL version 420,2013-03-07 11:43:00,
2013-03-07 22:48:00,68.0,62.2,30.06,East,93,2.0,2.7,83,0.00,,,0.00,WSDL version 420,2013-03-07 11:48:00,
2013-03-07 22:53:00,68.0,62.8,30.03,ESE,109,0.8,2.7,83,0.00,,,0.00,WSDL version 420,2013-03-07 11:53:00,
2013-03-07 22:58:00,67.9,62.3,30.03,ESE,122,0.3,2.5,82,0.00,,,0.00,WSDL version 420,2013-03-07 11:58:00,
2013-03-07 23:08:00,67.7,62.8,30.03,ESE,120,0.0,2.7,83,0.00,,,0.00,WSDL version 420,2013-03-07 12:08:00,
2013-03-07 23:13:00,67.6,62.7,30.03,SE,146,0.0,2.2,84,0.00,,,0.00,WSDL version 420,2013-03-07 12:13:00,
2013-03-07 23:18:00,67.6,62.4,30.03,ESE,113,1.5,2.9,84,0.00,,,0.00,WSDL version 420,2013-03-07 12:18:00,
2013-03-07 23:23:00,67.4,62.6,30.03,SSW,203,0.0,2.9,84,0.00,,,0.00,WSDL version 420,2013-03-07 12:23:00,
2013-03-07 23:28:00,67.3,62.7,30.03,ESE,104,0.8,2.7,86,0.00,,,0.00,WSDL version 420,2013-03-07 12:28:00,
2013-03-07 23:33:00,67.2,62.6,30.03,ESE,107,0.9,2.7,84,0.00,,,0.00,WSDL version 420,2013-03-07 12:33:00,
2013-03-07 23:43:00,66.7,62.2,30.03,SE,132,0.0,1.1,86,0.00,,,0.00,WSDL version 420,2013-03-07 12:43:00,
2013-03-07 23:48:00,66.5,62.3,30.03,East,90,0.0,2.2,87,0.00,,,0.00,WSDL version 420,2013-03-07 12:48:00,
2013-03-07 23:53:00,66.2,62.1,30.03,ESE,115,0.3,2.2,87,0.00,,,0.00,WSDL version 420,2013-03-07 12:53:00,
2013-03-07 23:58:00,66.2,62.2,30.03,SSE,161,1.2,2.2,88,0.00,,,0.00,WSDL version 420,2013-03-07 12:58:00,